FLOCK 2P-8 (41613 NORAD) Tracking and Keplerian Element Data

This shows tracking and keplerian element data for the satellite.

Feedback or suggestion? Click here.




ElementValue
Catalog41613
NameFLOCK 2P-8
Epoch Orbit9153
Epoch Day45.39214445
Epoch Year2018
RAAN111.2694
Inclination97.4319
Eccentricity0.0009399
Argument of Perigee319.3398
Mean Anonmoly40.7137
Mean Motion15.23947284
Decay Rate1.758E-05
L11 41613U 16040Q 18045.39214445 .00001758 00000-0 75594-4 0 9991
L22 41613 97.4319 111.2694 0009399 319.3398 40.7137 15.23947284 91535

Live tracking and technical data element details for FLOCK 2P-8 (NORAD 41613). FLOCK 2P-8 can be tracked NOW for your location showing map with azimuth and elevation plus other details from your city location.

Track the satellite on the map from your city or location and see movement details for azimuth, elevation, latitude, longitude, range, height, and movement on the map or in text.







IsCatalogInMostPopularTable: catalog: 41613, numindb: 110
Update: records affected: 1



GetName: 41613 FLOCK 2P-8

Hit Count: updated at: Wed, 14 Nov 2018 11:12:09 GMT